Retour au catalogue

SL-14 R/B

ActifPO
NORAD 14033·ROCKET BODY·🇷🇺 Russia

Lancé Apr 23, 1983 depuis Plesetsk Cosmodrome

Loading…

Prochains Passages (prochaines 24 heures)

TLE

FraisSource: Space-Track

Époque: Sep 14, 2026, 09:41 UTC

1 14033U 83037B   26257.40350743  .00000342  00000-0  35897-4 0  9995
2 14033  82.5046  53.9090 0018097 125.3570 234.9341 14.86323148959371

Suivez SL-14 R/B en temps réel avec AllMySat

Download on the App Store